Simultaneous Nadir Overpasses (SNOs) Predictions

Prediction of SNOs between GOES-16 and METOP-A Satellite Orbit:

Table of predicted SNOs for the next 14.0 days since TLE Epoch: 1/8/2022
Index Date Time (GOES-16) GOES-16 Lat,Lon METOP-A Lat,Lon Distance(km) Time Diff (sec)
1 01/10/2022 00:57:38 0.03, -75.18 0.12, -74.83 40.24 80
2 01/10/2022 13:15:57 -0.03, -75.21 0.69, -78.60 386.05 80
3 01/12/2022 12:42:14 -0.04, -75.22 -0.98, -70.99 482.65 80
4 01/13/2022 01:02:16 0.03, -75.21 0.03, -75.17 4.61 80
5 01/13/2022 13:17:47 -0.03, -75.23 0.78, -78.90 417.64 80
6 01/15/2022 12:44:03 -0.03, -75.25 -0.87, -71.28 451.38 80
7 01/16/2022 01:04:15 0.03, -75.24 -0.01, -75.51 30.44 80
8 01/16/2022 13:19:38 -0.03, -75.27 0.82, -79.21 448.71 80
9 01/18/2022 12:45:55 -0.03, -75.29 -0.85, -71.60 420.78 80
10 01/19/2022 01:06:11 0.03, -75.28 -0.10, -75.84 63.61 80
11 01/19/2022 13:21:28 -0.02, -75.31 0.90, -79.51 478.94 80
12 01/21/2022 12:47:45 -0.01, -75.34 -0.74, -71.90 391.49 80
13 01/22/2022 01:08:07 0.01, -75.33 -0.18, -76.16 94.56 80
